Weather in Kumkoy

Turkey     36°52′48″N   30°57′10″E
temp.,
°C
wind,
m/s
gust,
m/s
humid.,
%
clouds,
%
prec.,
mm/h
press.,
hPa
HPBL,
m
29 june, wed
wed2900:00+24n22475 0.0 100730
03:00+23n34530 0.0 100750
06:00+22nnw46550 0.0 1007104
09:00+30nnw55334 0.0 10071185
12:00+34sw222320 0.0 10063002
15:00+33sse752913 0.0 10061503
18:00+31sse433536 0.0 10061240
21:00+24se11594 0.0 100712
30 june, thu
thu3000:00+23n22560 0.0 100716
03:00+23n22524 0.0 100629
06:00+22n33520 0.0 100639
09:00+31nnw23300 0.0 10061010
12:00+36s53221 0.0 10053125
15:00+33s65290 0.0 10051316
18:00+31se433424 0.0 1006958
21:00+26ese115613 0.0 100616
1 july, fri
fri100:00+24n22530 0.0 100615
03:00+24n23470 0.0 100531
06:00+24nnw34470 0.0 100559
09:00+32nnw45270 0.0 10051289
12:00+37nnw13190 0.0 10043327
15:00+38s551911 0.0 10032667
18:00+31se443895 0.0 1005385
21:00+27ne22530 0.0 100612
2 july, sat
sat200:00+26n22420 0.0 100722
03:00+25n34430 0.0 100649
06:00+25n34500 0.0 100670
09:00+32n45300 0.0 10071353
12:00+37nne45190 0.0 10062387
15:00+39ne75150 0.0 10043277
18:00+38ne75140 0.0 10042388
21:00+30ne35250 0.0 100592
3 july, sun
sun300:00+26nne33300 0.0 100739
03:00+24n44370 0.0 100656
06:00+23n46420 0.0 100682
09:00+31n46210 0.0 10061114
12:00+36nne44110 0.0 10052028
15:00+39ne23100 0.0 10042877
18:00+37ese24120 0.0 10041836
21:00+27ene22270 0.0 100616